Find Starlink 30827

NORAD ID: 58195 Int'l Des: 2023-167 Owner: SPXS Country: US Constellation: starlink operational
LEOCIRCULAR

Current View

Loading 3D Globe...

About Starlink 30827

Starlink 30827 (NORAD 58195) is a starlink constellation satellite (v2 mini) launched Oct 30, 2023 by SPXS of US. It operates in LEO, CIRCULAR orbit with a mass of 730.00 kg.

Upcoming Passes

Passes for default location (London). Set your location on the main map for personalized predictions.

Altitude History

Loading altitude history...

Two-Line Element Set

1 58195U 23167W 26263.95991249 -.00007350 00000-0 -25771-3 0 9996
2 58195 43.0001 120.2231 0001552 269.0701 90.9973 15.27595367160854
Epoch: Sep 20, 2026 • Age: 10 hours

Current Status

Altitude 482.7 km
Apogee / Perigee N/A
Velocity 7.63 km/s
Sub-Earth Point 17.19°N, 141.43°E
Launch Date Oct 30, 2023
Age 2.8 years
Type internet

Technical Details

Classification Payload
Mass 730.00 kg
Dry Mass 700.00 kg
Length 0.30 m
Span 29.00 m
Shape ? Box + pan
Manufacturer SPXS
Bus Type Starlink V2M
Phase Status In Orbit
Owner/State SPXS/US

Most Searched